Lexington Weather

Lexington, Massachusetts, USA

59°F
11/30/2020 6:09pm 
  • Lexington Conditions: Light rain, Mist, Overcast
  • Temperature: 59.4°F / 15.2°CWarmer 0.8°F than last hour.
  • Dew Point: 57.6°FIncreased 0.4°Fsince last hour.
  • Relative Humidity: 94%Decreased 1.0% since last hour.
  • Wind: Wind from WSW WSW 9 mph, 10-min avg: 8 mph, gust: 38 mph
  • Barometer: 29.57 in Steady
  • Visibility: 4 miles
  • Rain Today: 0.54 in
  •   
Southeast Middlesex County - Wind Advisory
 - SEE ALL NEARBY ALERTS -

Regional Weather Roundup
for Boston / Norton, MA

        
000
ASUS41 KBOX 271405
RWRBOX

REGIONAL WEATHER ROUNDUP
NATIONAL WEATHER SERVICE BOSTON/NORTON MA
900 AM EST FRI NOV 27 2020

NOTE:  "FAIR" INDICATES FEW OR NO CLOUDS BELOW 12,000 FEET WITH NO 
SIGNIFICANT WEATHER AND/OR OBSTRUCTIONS TO VISIBILITY.

MAZALL-271500-
EASTERN MASSACHUSETTS
  
CITY           SKY/WX    TMP DP  RH WIND       PRES   REMARKS
BOSTON         MOSUNNY   52  47  83 NW3       30.05S                  
BEVERLY        PTSUNNY   48  45  89 W3        30.04R                  
LAWRENCE       PTSUNNY   42  40  92 SW5       30.07R                  
BEDFORD        PTSUNNY   41  40  96 CALM      30.05R                  
BLUE HILL        N/A     49  46  90 W10       30.04R                  
NORWOOD        CLOUDY    47  45  93 CALM      30.05S                  
MARSHFIELD     SUNNY     54  54 100 CALM      30.04F                  
PLYMOUTH       PTSUNNY   51  49  92 SW3       30.05S                  
TAUNTON        CLOUDY    49  46  90 CALM      30.05S                  
NEW BEDFORD    CLOUDY    49  49 100 CALM      30.05S                  
$$

MAZALL-271500-
CAPE COD AND THE ISLANDS
  
CITY           SKY/WX    TMP DP  RH WIND       PRES   REMARKS
FALMOUTH       MOSUNNY   50  50 100 CALM      30.05S                  
HYANNIS        SUNNY     50  50 100 CALM      30.04S                  
CHATHAM        FOG       49  48  97 CALM      30.06S VSB 1/4          
NANTUCKET      SUNNY     56  53  90 W3        30.05F                  
MARTHAS VNYRD  CLOUDY    53  52  96 CALM      30.06S                  
$$
 
MAZALL-271500-
CENTRAL AND WESTERN MASSACHUSETTS
  
CITY           SKY/WX    TMP DP  RH WIND       PRES   REMARKS
WORCESTER      CLOUDY    49  44  83 W7        30.05R                  
FITCHBURG      CLOUDY    43  42  97 CALM      30.06R                  
ORANGE         CLOUDY    40  40 100 CALM      30.07R                  
SPRINGFIELD    PTSUNNY   44  44 100 CALM      30.06R                  
WESTFIELD      CLOUDY    44  43  96 CALM      30.06R                  
NORTH ADAMS    CLOUDY    51  44  77 W5        30.07R                  
PITTSFIELD     CLOUDY    48  42  80 W5        30.06R                  
$$
 
RIZALL-271500-
RHODE ISLAND
  
CITY           SKY/WX    TMP DP  RH WIND       PRES   REMARKS
PROVIDENCE     CLOUDY    49  48  97 W3        30.07R                  
NEWPORT        CLOUDY    50  50 100 CALM      30.06R                  
BLOCK ISLAND   CLOUDY    54  51  90 W5        30.07S                  
SMITHFIELD     CLOUDY    48  48 100 CALM      30.06S                  
WESTERLY       CLOUDY    50  49  96 CALM      30.07R                  
$$
 
CTZALL-271500-
CONNECTICUT
  
CITY           SKY/WX    TMP DP  RH WIND       PRES   REMARKS
BRADLEY INTL   CLOUDY    47  45  93 CALM      30.07R                  
HARTFORD       CLOUDY    49  46  90 CALM      30.07S                  
BRIDGEPORT     CLOUDY    53  50  89 CALM      30.07S                  
DANBURY        CLOUDY    50  48  93 CALM      30.09R                  
GROTON         CLOUDY    51  49  92 NE3       30.06S                  
NEW HAVEN      CLOUDY    53  50  89 CALM      30.07R                  
CHESTER        CLOUDY    54  52  94 CALM      30.06F                  
MERIDEN        CLOUDY    49  47  93 CALM      30.07S                  
WILLIMANTIC    CLOUDY    44  42  93 CALM      30.07S                  
OXFORD         CLOUDY    51  49  92 CALM      30.08R                  
$$

MEZ002-015-021-024-NHZ003-005-008-011-012-014-VTZ005-008-271500-
NORTHERN NEW ENGLAND
  
CITY           SKY/WX    TMP DP  RH WIND       PRES   REMARKS
PORTLAND ME    MOSUNNY   39  38  96 CALM      30.04R                  
BANGOR ME      MOSUNNY   37  36  96 CALM      30.01R                  
CONCORD NH     FOG       35  35 100 CALM      30.04R VSB 1/4          
MANCHESTER NH  MOSUNNY   38  36  92 CALM      30.04R                  
NASHUA NH      PTSUNNY   38  38 100 E3        30.06R                  
PORTSMOUTH NH  MOSUNNY   43  43  99 SW5       30.02R                  
JAFFREY NH     SUNNY     45  43  93 CALM      30.04  FOG              
KEENE NH       CLOUDY    41  41 100 CALM      30.06S                  
BURLINGTON VT  CLOUDY    46  39  76 NE5       30.06S                  
MT. WASHINGTON FRZ DRZL  30  30 100 NW32        N/A  VSB 1/16WCI  15  
$$

NYZ052-076-271500-
EASTERN NEW YORK
  
CITY           SKY/WX    TMP DP  RH WIND       PRES   REMARKS
ALBANY         CLOUDY    47  43  86 W8        30.09R                  
NEW YORK CITY  MOSUNNY   59  46  62 NW3       30.07S                  
$$
 
ANZALL-271500-
MARINE OBSERVATIONS
  
STATION/POSITION TIME  TEMP    WIND        PRES    VSBY  WAVE
                       AIR SEA DIR/SP/G                  HT/PER
                 (UTC) (F)     (DEG/KT/KT) (MB)    (MI)  (FT/S)
BOSTON BUOY      1350   49 50  200/  6/  8 1017.8R         2/10
BUZZARDS BAY     1300          250/  8/  8 1018.5R
NANTUCKET SOUND  1340      51  230/  2/  4   N/A
MASS BAY-STELLWA NOT AVBL
ISLE OF SHOALS   1300   43     340/  1/  2 1016.4R
S OF BLOCK IS    1326      57                N/A           6/ 9
$$

......................KEY.........................
  SKY/WX - SKY CONDITION/PRESENT WEATHER
  TMP    - TEMPERATURE IN FAHRENHEIT
  DWPT   - DEWPOINT IN FAHRENHEIT
  RH     - RELATIVE HUMIDITY IN PERCENT
  WIND   - DIRECTION AND SPEED IN MPH
  PRES   - MEAN SEA LEVEL PRESSURE IN INCHES OF HG
  WCI    - WIND CHILL INDEX
  VSB    - VISIBILITY IN MILES
  HX     - HEAT INDEX
  TC     - TEMPERATURE IN CELSIUS
  VRB    - VARIABLE WIND DIRECTION
  N/A    - NOT AVAILABLE
  
      

Other recent Regional Weather Roundups

Mon Nov 30, 6:04pm

Mon Nov 30, 5:05pm

Mon Nov 30, 4:04pm

Mon Nov 30, 3:05pm

Mon Nov 30, 2:05pm

Mon Nov 30, 1:04pm

Mon Nov 30, 12:05pm

Mon Nov 30, 11:04am

Mon Nov 30, 10:04am

Mon Nov 30, 9:04am

Mon Nov 30, 8:04am

Mon Nov 30, 7:05am

Mon Nov 30, 6:04am

Mon Nov 30, 5:05am

Mon Nov 30, 4:04am

Mon Nov 30, 3:04am

Mon Nov 30, 2:04am

Mon Nov 30, 1:04am

Mon Nov 30, 12:04am

Sun Nov 29, 11:04pm

Sun Nov 29, 10:04pm

Sun Nov 29, 9:04pm

Sun Nov 29, 8:04pm

Sun Nov 29, 7:04pm

Sun Nov 29, 6:04pm

Sun Nov 29, 5:04pm

Sun Nov 29, 4:05pm

Sun Nov 29, 3:04pm

Sun Nov 29, 2:04pm

Sun Nov 29, 1:04pm

Sun Nov 29, 12:04pm

Sun Nov 29, 11:04am

Sun Nov 29, 10:04am

Sun Nov 29, 9:04am

Sun Nov 29, 8:05am

Sun Nov 29, 7:04am

Sun Nov 29, 6:04am

Sun Nov 29, 5:04am

Sun Nov 29, 4:04am

Sun Nov 29, 3:04am

Sun Nov 29, 2:05am

Sun Nov 29, 1:04am

Sun Nov 29, 12:04am

Sat Nov 28, 11:04pm

Sat Nov 28, 10:04pm

Sat Nov 28, 9:04pm

Sat Nov 28, 8:04pm

Sat Nov 28, 7:04pm

Sat Nov 28, 6:04pm

Sat Nov 28, 5:04pm

Sat Nov 28, 4:04pm

Sat Nov 28, 3:04pm

Sat Nov 28, 2:04pm

Sat Nov 28, 1:04pm

Sat Nov 28, 12:04pm

Sat Nov 28, 11:04am

Sat Nov 28, 10:04am

Sat Nov 28, 9:04am

Sat Nov 28, 8:04am

Sat Nov 28, 7:04am

Sat Nov 28, 6:04am

Sat Nov 28, 5:04am

Sat Nov 28, 4:04am

Sat Nov 28, 3:05am

Sat Nov 28, 2:04am

Sat Nov 28, 1:04am

Sat Nov 28, 12:04am

Fri Nov 27, 11:05pm

Fri Nov 27, 10:04pm

Fri Nov 27, 9:04pm

Fri Nov 27, 8:04pm

Fri Nov 27, 7:04pm

Fri Nov 27, 6:04pm

Fri Nov 27, 5:04pm

Fri Nov 27, 4:05pm

Fri Nov 27, 3:05pm

Fri Nov 27, 2:05pm

Fri Nov 27, 1:04pm

Fri Nov 27, 12:04pm

Fri Nov 27, 11:04am

Fri Nov 27, 10:04am

Fri Nov 27, 8:04am

Fri Nov 27, 7:04am

Fri Nov 27, 6:04am

Fri Nov 27, 5:04am

Fri Nov 27, 4:04am

Fri Nov 27, 3:04am

Fri Nov 27, 2:04am

Fri Nov 27, 1:04am

Fri Nov 27, 12:04am

Thu Nov 26, 11:04pm

Thu Nov 26, 10:04pm

Thu Nov 26, 9:04pm

Thu Nov 26, 8:04pm

Thu Nov 26, 7:04pm

Thu Nov 26, 6:04pm

Thu Nov 26, 5:04pm

Thu Nov 26, 4:04pm

Thu Nov 26, 2:04pm

Thu Nov 26, 1:04pm

Thu Nov 26, 12:04pm

Thu Nov 26, 11:04am

Thu Nov 26, 10:04am

Thu Nov 26, 9:04am

Thu Nov 26, 8:04am

Thu Nov 26, 7:04am

Thu Nov 26, 6:04am

Thu Nov 26, 5:04am

Thu Nov 26, 4:04am

Thu Nov 26, 3:04am

Thu Nov 26, 2:04am

Thu Nov 26, 1:04am

Thu Nov 26, 12:04am

Wed Nov 25, 11:04pm

Wed Nov 25, 10:04pm

Wed Nov 25, 9:04pm

Wed Nov 25, 8:04pm

Wed Nov 25, 7:04pm

Wed Nov 25, 6:04pm

Wed Nov 25, 5:04pm

Wed Nov 25, 4:04pm

Wed Nov 25, 3:05pm

Wed Nov 25, 2:04pm

Wed Nov 25, 1:04pm

Wed Nov 25, 12:05pm

Wed Nov 25, 11:04am

Wed Nov 25, 10:04am

Wed Nov 25, 9:04am

Wed Nov 25, 8:04am

Wed Nov 25, 7:04am

Wed Nov 25, 6:04am

Wed Nov 25, 5:04am

Wed Nov 25, 4:04am

Wed Nov 25, 3:04am

Wed Nov 25, 2:04am

Wed Nov 25, 1:04am

Wed Nov 25, 12:04am

Tue Nov 24, 11:04pm

Tue Nov 24, 10:04pm

Tue Nov 24, 9:04pm

Tue Nov 24, 8:04pm

Tue Nov 24, 7:04pm

Tue Nov 24, 6:04pm

Tue Nov 24, 5:04pm

Tue Nov 24, 4:05pm

Tue Nov 24, 3:05pm

Tue Nov 24, 2:05pm

Tue Nov 24, 1:05pm

Tue Nov 24, 12:04pm

Tue Nov 24, 11:04am

Tue Nov 24, 10:04am

Tue Nov 24, 9:04am

Tue Nov 24, 8:04am

Tue Nov 24, 7:04am

Tue Nov 24, 6:04am

Tue Nov 24, 5:04am

Tue Nov 24, 4:05am

Tue Nov 24, 3:04am

Tue Nov 24, 2:04am

Tue Nov 24, 1:04am

Tue Nov 24, 12:05am

Mon Nov 23, 11:04pm

Mon Nov 23, 10:04pm

Mon Nov 23, 9:04pm

Mon Nov 23, 8:04pm

Mon Nov 23, 7:04pm

Meta data:

ID: 8ae1b030-0124-4255-9ecb-09b0a4d458c4
Link: https://api.weather.gov/products/8ae1b030-0124-4255-9ecb-09b0a4d458c4